Regional Weather Roundup
Issued by NWS Little Rock, AR

Home | Current Version | Previous Version | Text Only | Print | Product List | Glossary Off
Versions: 1 2 3 4 5 6 7 8 9 10 11 12 13 14 15 16 17 18 19 20 21 22 23 24 25 26 27 28 29 30 31

000
ASUS44 KLZK 202105
RWRLZK

WEATHER ROUNDUP FOR ARKANSAS
NATIONAL WEATHER SERVICE LITTLE ROCK AR
400 PM CDT FRI OCT 20 2017

NOTE: "FAIR" INDICATES FEW OR NO CLOUDS BELOW 12,000 FEET WITH NO
SIGNIFICANT WEATHER AND/OR OBSTRUCTIONS TO VISIBILITY.

ARZ001-003-010-029-202200-
NORTHWEST ARKANSAS

CITY           SKY/WX    TMP DP  RH WIND       PRES   REMARKS
FAYETTEVILLE   MOSUNNY   72  58  61 SE14G23   30.04F
FORT SMITH     PTSUNNY   75  60  59 SE10      30.02F
HARRISON       CLOUDY    69  58  67 S13       30.08F
BENTONVILLE    PTSUNNY   74  59  59 S12G18    30.04F
ROGERS         PTSUNNY   72  58  61 S13       30.04F
SILOAM SPGS    CLOUDY    73  59  61 S16G22    30.02F
HIGHFILL       PTSUNNY   73  59  61 S15       30.03F
SPRINGDALE     PTSUNNY   73  59  60 S14       30.05F
$$

ARZ004-005-016-202200-
NORTH CENTRAL ARKANSAS

CITY           SKY/WX    TMP DP  RH WIND       PRES   REMARKS
BATESVILLE     CLOUDY    74  58  57 VRB5      30.11F
FLIPPIN        CLOUDY    70  59  68 S8        30.09F
MTN HOME       CLOUDY    70  59  68 SW8       30.08S
$$

ARZ040-041-202200-
WEST CENTRAL ARKANSAS

CITY           SKY/WX    TMP DP  RH WIND       PRES   REMARKS
MENA           CLOUDY    73  64  73 SE5       30.06F
MOUNT IDA      CLOUDY    72  58  61 SE5       30.04
$$

ARZ009-017-025-026-028-202200-
NORTHEAST ARKANSAS

CITY           SKY/WX    TMP DP  RH WIND       PRES   REMARKS
JONESBORO      CLOUDY    78  56  46 SE12      30.11F
NEWPORT        MOSUNNY   76  56  49 S9        30.11F
WALNUT RIDGE   CLOUDY    75  55  49 S9        30.11F
BLYTHEVILLE    CLOUDY    75  52  44 SE8       30.13F
NW BLYTHEVILLE CLOUDY    75  52  43 SE8       30.13
$$

ARZ022-023-033-042-044-202200-
CENTRAL ARKANSAS

CITY           SKY/WX    TMP DP  RH WIND       PRES   REMARKS
LITTLE ROCK    CLOUDY    73  60  63 S6        30.09F
N LITTLE ROCK    N/A     73  60  64 S6        30.10F
JACKSONVILLE   CLOUDY    75  59  57 S3        30.08F
SEARCY         CLOUDY    74  60  61 S8        30.11F
HOT SPRINGS    PTSUNNY   73  60  63 S7        30.08F
RUSSELLVILLE   CLOUDY    72  62  71 CALM      30.07F
CLINTON        FAIR      70  61  73 CALM      30.11R
$$

ARZ036-202200-
EAST ARKANSAS

CITY           SKY/WX    TMP DP  RH WIND       PRES   REMARKS
WEST MEMPHIS   PTSUNNY   75  55  49 SE8       30.12S
$$

ARZ050-053-066-070-073-202200-
SOUTHWEST ARKANSAS

CITY           SKY/WX    TMP DP  RH WIND       PRES   REMARKS
ARKADELPHIA    FAIR      74  62  66 VRB5      30.07F
CAMDEN         CLOUDY    75  57  53 SE8       30.07F
TEXARKANA      CLOUDY    76  60  57 SE10G16   30.05R
EL DORADO      CLOUDY    74  61  63 E9        30.09S
DE QUEEN       MOSUNNY   77  64  64 SE7       30.01F
$$

ARZ056-057-069-202200-
SOUTHEAST ARKANSAS

CITY           SKY/WX    TMP DP  RH WIND       PRES   REMARKS
PINE BLUFF     CLOUDY    75  58  55 S5        30.09F
STUTTGART      CLOUDY    76  57  51 SE6       30.10F
MONTICELLO     CLOUDY    75  57  53 E6        30.09F

$$






USA.gov is the U.S. government's official web portal to all federal, state and local government web resources and services.